Meteo Giornale » Osservazioni meteo Germania » Heringsdorf
ore: 20:50 - Osservazioni Meteo Heringsdorf
Lat. 53° 53' N Lon. 14° 9' E Alt. 28 metri s.l.m.
17 °C
Coperto
Temp. 24 Ore
14 °C
20 °C
Ovest
18.5 Km/h
Dew point 14 °C
Umidità 82 %
Visibilità 10 Km
Il sole sorge alle ore 06:12
Il sole tramonta alle ore 19:54
| Data e Ora | Cielo e Fenomeni | T °C | DP °C | Um. % | Pres. hPa | Vis. km | Vento km/h | |
|---|---|---|---|---|---|---|---|---|
| Oggi h: 20:50 | Coperto | 17 | 14 | 82 | 1016 | 10 | O 18.5 | |
| Oggi h: 20:20 | Coperto | 17 | 14 | 82 | 1016 | 10 | O 14.8 | |
| Oggi h: 19:50 | Molto Nuvoloso | 17 | 13 | 77 | 1015 | 10 | O/SO 11.1 | |
| Oggi h: 19:20 | Molto Nuvoloso | 18 | 13 | 72 | 1015 | 10 | O 16.7 | |
| Oggi h: 18:50 | Molto Nuvoloso | 18 | 13 | 72 | 1015 | 10 | O 22.2 | |
| Oggi h: 18:20 | Molto Nuvoloso | 19 | 14 | 72 | 1015 | 10 | O 27.8 | |
| Oggi h: 17:50 | Molto Nuvoloso | 20 | 14 | 68 | 1015 | 10 | O 16.7 | |
| Oggi h: 17:20 | Molto Nuvoloso | 19 | 15 | 77 | 1015 | 10 | O 18.5 | |
| Oggi h: 08:20 | Molto Nuvoloso | 16 | 14 | 87 | 1012 | 10 | O 24 | |
| Oggi h: 07:50 | Molto Nuvoloso | 16 | 14 | 87 | 1012 | 10 | O 22.2 | |
| Oggi h: 07:20 | Molto Nuvoloso | 15 | 13 | 87 | 1012 | 10 | O 20.3 | |
| Oggi h: 06:50 | Molto Nuvoloso | 15 | 13 | 87 | 1012 | 10 | O 20.3 | |
| Oggi h: 06:20 | Nuvoloso | 14 | 13 | 93 | 1011 | 10 | O 16.7 | |
| Oggi h: 05:50 | Coperto | 15 | 13 | 87 | 1011 | 10 | O 18.5 | |
| Oggi h: 05:20 | Coperto | 15 | 13 | 87 | 1011 | 10 | O 18.5 | |
| Oggi h: 04:50 | Coperto | 15 | 13 | 87 | 1011 | 10 | O 22.2 | |
| Oggi h: 04:20 | Coperto | 15 | 13 | 87 | 1011 | 10 | O 22.2 | |
| Oggi h: 03:50 | Coperto | 15 | 13 | 87 | 1011 | 10 | O/SO 24 | |
| Oggi h: 03:20 | Molto Nuvoloso | 15 | 13 | 87 | 1011 | 10 | O/SO 20.3 | |
| Oggi h: 02:50 | Molto Nuvoloso | 15 | 13 | 87 | 1011 | 10 | O/SO 20.3 | |
| Oggi h: 02:20 | Molto Nuvoloso | 16 | 13 | 82 | 1010 | 10 | O/SO 18.5 | |
| Oggi h: 01:50 | Molto Nuvoloso | 16 | 13 | 82 | 1010 | 10 | O/SO 18.5 | |
| Oggi h: 01:20 | Coperto | 15 | 13 | 87 | 1010 | 10 | N 5.5 | |
| Oggi h: 00:50 | Coperto | 16 | 13 | 82 | 1010 | 10 | O/SO 24 | |
| Oggi h: 00:20 | Coperto | 17 | 13 | 77 | 1010 | 10 | O 18.5 | |
| Ieri h: 23:50 | Molto Nuvoloso | 17 | 14 | 82 | 1010 | 10 | O 16.7 | |
| Ieri h: 23:20 | Molto Nuvoloso | 16 | 14 | 87 | 1010 | 10 | N 5.5 | |
| Ieri h: 22:50 | Poco Nuvoloso | 16 | 14 | 87 | 1010 | 10 | O/SO 11.1 | |
| Ieri h: 22:20 | Poco Nuvoloso | 16 | 15 | 93 | 1010 | 10 | N 5.5 | |
| Ieri h: 21:50 | Poco Nuvoloso | 16 | 15 | 93 | 1009 | 10 | N 3.7 | |



